Home > Time Zones > World Clock > Weather > India > Tonk > Past weeks

Flag for India Weather past 2 weeks in Tonk, Rajasthan, India

Now
86 °F

Partly cloudy.


Feels Like: 95 °F
Forecast: 83 / 98 °F
Wind: 3 mph from Southeast

Location: Jaipur / Sanganer

Current Time: Aug 29, 2014 at 11:46:49 PM

Latest Report: Aug 29, 2014 at 11:00 PM


Visibility: 2 mi

Pressure: 29.71 "Hg

Humidity: 70%

Dew point: 75 °F

Location of TonkLocation

Historic Weather in Tonk — Graph

°F

Tonk temperature yesterday

Maximum temperature yesterday: 97 °F (at 1:00 PM)
Minimum temperature yesterday: 82 °F (at 5:00 AM)
Average temperature yesterday: 88 °F

Past Weeks' High & Low Weather Summary

 TemperatureHumidityPressure
High100 °F (Aug 25, 3:00 PM)94% (Aug 16, 8:00 AM)30.01 "Hg (Aug 16, 8:00 AM)
Low77 °F (Aug 16, 3:00 AM)27% (Aug 25, 4:00 PM)29.59 "Hg (Aug 15, 12:00 AM)
Average88 °F59%29.72 "Hg
* Reported Aug 14 10:00 PM — Aug 29 10:00 PM, Tonk, Weather by CustomWeather, © 2014

Note: Actual official high and low records may vary slightly from our data, if they occured in-between our weather recording intervals... More about our weather records

Advertising

Tonk weather history for previous 24 hours

 ConditionsComfort  
Time TempWeatherWind HumidityBarometerVisibility
10:00 PM
Aug 29
86 °FPartly cloudy.7 mph70%29.71 "Hg2 mi
9:00 PM86 °FThunderstorms. Partly cloudy.7 mph70%29.71 "Hg2 mi
7:00 PM91 °FBroken clouds.8 mph49%29.65 "Hg2 mi
6:00 PM91 °FBroken clouds.9 mph52%29.62 "Hg2 mi
5:00 PM95 °FScattered clouds.8 mph47%29.62 "Hg2 mi
4:00 PM95 °FScattered clouds.10 mph47%29.62 "Hg2 mi
3:00 PM93 °FScattered clouds.9 mph47%29.65 "Hg2 mi
2:00 PM93 °FScattered clouds.8 mph49%29.68 "Hg2 mi
1:00 PM93 °FScattered clouds.8 mph53%29.71 "Hg2 mi
12:00 PM93 °FScattered clouds.6 mph53%29.71 "Hg2 mi
11:00 AM90 °FHaze.6 mph63%29.74 "Hg2 mi
10:00 AM88 °FHaze.9 mph66%29.77 "Hg2 mi
9:00 AM86 °FFog.9 mph66%29.77 "Hg2 mi
8:00 AM84 °FHaze.8 mph66%29.74 "Hg2 mi
7:00 AM82 °FHaze.2 mph70%29.74 "Hg2 mi
6:00 AM81 °FHaze.3 mph70%29.71 "Hg2 mi
5:00 AM81 °FPassing clouds.2 mph70%29.71 "Hg2 mi
12:00 AM84 °FPassing clouds.1 mph66%29.74 "Hg2 mi
Weather by CustomWeather, © 2014

See weather overviewHow to use our weather pages